Location: ??????
(56.0120°N, 39.1740°E)
Time: 19:12:22
(UTC+00:00)

Terra - Pass Details

Date: 14 April 2026
Orbit: 689 x 691 km, 97.9° (Epoch: 19 May)

Event Time Altitude Azimuth Distance (km) Brightness Sun altitude
Rises 19:15:05 0° 220° (SW) 3,055 5.0 -19.2°
Reaches altitude 10° 19:18:28 10° 246° (WSW) 2,145 4.4 -19.4°
Maximum altitude 19:20:49 14° 276° (W) 1,912 4.5 -19.6°
Drops below altitude 10° 19:23:10 10° 307° (NW) 2,152 5.3 -19.8°
Sets 19:26:36 0° 333° (NNW) 3,075 6.8 -20.0°
